Location: Street
(51.1247°N, 2.7429°W)
Time: 05:27:20
(UTC+00:00)

SR - Pass Details

Date: 27 November 2020
Orbit: 575 x 880 km, 66.7° (Epoch: 25 January)

Event Time Altitude Azimuth Distance (km) Brightness Sun altitude
Rises 17:49:47 0° 165° (SSE) 2,801 ? -15.1°
Reaches altitude 10° 17:52:44 10° 143° (SE) 1,938 ? -15.5°
Enters shadow 17:54:00 14° 126° (SE) 1,721 ? -15.7°
Maximum altitude 17:55:16 15° 107° (ESE) 1,654 - -15.9°
Drops below altitude 10° 17:57:53 10° 71° (ENE) 2,024 - -16.3°
Sets 18:01:05 0° 49° (NE) 3,001 - -16.8°
